Wichita, KS

7:10 AM CDT on April 26, 2017 (GMT -0500)
Wichita Eisenhower National Airport

Weather History for KICT - May, 2012

Change the Weather History Date:

Monday, May 28, 2012

  Actual Average Record
Temperature  
Mean Temperature 81 °F 70 °F  
Max Temperature 94 °F 80 °F 96 °F (1974)
Min Temperature 67 °F 59 °F 39 °F (1947)
Degree Days  
Heating Degree Days 0 1  
Month to date heating degree days 11 77  
Since 1 July heating degree days 3616 4585  
Cooling Degree Days 16 6  
Month to date cooling degree days 236 92  
Year to date cooling degree days 337 118  
Growing Degree Days 30 (Base 50)    
Moisture  
Dew Point 49 °F    
Average Humidity 44    
Maximum Humidity 76    
Minimum Humidity 12    
Precipitation  
Precipitation 0.00 in 0.16 in 2.17 in (1975)
Month to date precipitation 0.62 4.05  
Year to date precipitation 13.49 11.34  
Snow  
Snow 0.00 in 0.00 in 0.00 in (2007)
Month to date snowfall 0.0 0.0  
Since 1 July snowfall 3.0 14.9  
Snow Depth 0.00 in    
Sea Level Pressure  
Sea Level Pressure 29.75 in    
Wind  
Wind Speed 10 mph (North)    
Max Wind Speed 22 mph    
Max Gust Speed 28 mph    
Visibility 10 miles    
Events      
T = Trace of Precipitation, MM = Missing Value Source: NWS Daily Summary

Daily Weather History Graph

Daily Weather History Graph

Search for Another Location

Airport or City:

Trip Planner

Search our weather history database for the weather conditions in past years. The results will help you decide how hot, cold, wet, or windy it might be!

Date:

Astronomy

May. 28, 2012 Rise Set
Actual Time 6:11 AM CDT 8:43 PM CDT
Civil Twilight 5:40 AM CDT 9:13 PM CDT
Nautical Twilight 5:03 AM CDT 9:51 PM CDT
Astronomical Twilight 4:21 AM CDT 10:33 PM CDT
Moon 1:17 PM CDT (5/28) 1:25 AM CDT (5/28)
Length of Visible Light 15h 32m
Length of Day
14h 31m
Waxing Crescent, 49% of the Moon is Illuminated
May 28
Waxing Crescent
May 28
First Quarter
Jun 4
Full
Jun 11
Last Quarter
Jun 19
New

Hourly Weather History & Observations

Time (CDT) Temp. Heat Index Dew Point Humidity Pressure Visibility Wind Dir Wind Speed Gust Speed Precip Events Conditions
12:53 AM 77.0 °F - 60.1 °F 56% 29.69 in 10.0 mi South 16.1 mph - N/A   Partly Cloudy
1:53 AM 77.0 °F - 60.1 °F 56% 29.67 in 10.0 mi South 19.6 mph 26.5 mph N/A   Scattered Clouds
2:53 AM 75.9 °F - 59.0 °F 56% 29.67 in 10.0 mi South 16.1 mph 24.2 mph N/A   Scattered Clouds
3:53 AM 73.9 °F - 59.0 °F 59% 29.66 in 10.0 mi South 16.1 mph - N/A   Scattered Clouds
4:53 AM 73.0 °F - 59.0 °F 61% 29.67 in 10.0 mi South 16.1 mph 23.0 mph N/A   Partly Cloudy
5:53 AM 72.0 °F - 59.0 °F 64% 29.70 in 10.0 mi SSW 11.5 mph - N/A   Clear
6:53 AM 68.0 °F - 60.1 °F 76% 29.73 in 10.0 mi SW 8.1 mph - N/A   Clear
7:53 AM 71.1 °F - 59.0 °F 66% 29.75 in 10.0 mi West 5.8 mph - N/A   Clear
8:53 AM 73.9 °F - 59.0 °F 59% 29.78 in 10.0 mi NW 6.9 mph - N/A   Clear
9:53 AM 80.1 °F 81.2 °F 62.1 °F 54% 29.78 in 10.0 mi North 11.5 mph - N/A   Clear
10:53 AM 82.9 °F 82.8 °F 59.0 °F 44% 29.79 in 10.0 mi North 12.7 mph - N/A   Clear
11:53 AM 87.1 °F 85.3 °F 55.0 °F 33% 29.79 in 10.0 mi North 13.8 mph - N/A   Clear
12:53 PM 89.1 °F - 46.9 °F 23% 29.80 in 10.0 mi North 8.1 mph 18.4 mph N/A   Clear
1:53 PM 91.0 °F - 41.0 °F 17% 29.79 in 10.0 mi North 13.8 mph 17.3 mph N/A   Clear
2:53 PM 91.0 °F - 39.9 °F 17% 29.78 in 10.0 mi Variable 4.6 mph - N/A   Partly Cloudy
3:53 PM 93.0 °F - 37.9 °F 15% 29.77 in 10.0 mi NNE 5.8 mph - N/A   Clear
4:53 PM 91.9 °F - 34.0 °F 13% 29.77 in 10.0 mi West 4.6 mph - N/A   Clear
5:53 PM 91.9 °F - 32.0 °F 12% 29.76 in 10.0 mi ENE 6.9 mph - N/A   Clear
6:53 PM 90.0 °F - 36.0 °F 15% 29.76 in 10.0 mi NNE 5.8 mph - N/A   Clear
7:53 PM 87.1 °F - 37.0 °F 17% 29.76 in 10.0 mi NNE 9.2 mph - N/A   Clear
8:53 PM 82.9 °F - 36.0 °F 19% 29.77 in 10.0 mi NNE 10.4 mph - N/A   Clear
9:53 PM 80.1 °F - 35.1 °F 20% 29.78 in 10.0 mi NNE 9.2 mph - N/A   Clear
10:53 PM 77.0 °F - 35.1 °F 22% 29.81 in 10.0 mi NE 8.1 mph - N/A   Partly Cloudy
11:53 PM 75.9 °F - 35.1 °F 23% 29.81 in 10.0 mi NNE 9.2 mph - N/A   Partly Cloudy